• en Suisse
  • Liste des pays
  • À 7 jours
  • Température de l'eau
  • Carte satellitaire
  • Carte météo
  • Widgets météo
  • user-avatar
    Se connecter

    Météo par heure à Hamilton

    Ce jour, 21 Janvier, Dimanche

    Heure Température Précipitation Vent Pression Humidité
    00:00 +20°C° 0 mm 1 m/s 761 mmHg 97%
    01:00 +19°C° 0 mm 1 m/s 761 mmHg 97%
    02:00 +17°C° 0 mm 0 m/s 761 mmHg 98%
    03:00 +17°C° 0 mm 0 m/s 761 mmHg 98%
    04:00 +19°C° 0 mm 1 m/s 761 mmHg 98%
    05:00 +19°C° 0 mm 1 m/s 761 mmHg 98%
    06:00 +18°C° 0 mm 0 m/s 761 mmHg 97%
    07:00 +22°C° 0 mm 1 m/s 761 mmHg 88%
    08:00 +24°C° 0 mm 1 m/s 761 mmHg 80%
    09:00 +26°C° 0 mm 1 m/s 761 mmHg 71%
    10:00 +27°C° 0 mm 1 m/s 761 mmHg 65%
    11:00 +29°C° 0 mm 1 m/s 760 mmHg 58%
    12:00 +29°C° 0 mm 1 m/s 760 mmHg 55%
    13:00 +29°C° 0 mm 2 m/s 760 mmHg 56%
    14:00 +29°C° 0 mm 2 m/s 760 mmHg 56%
    15:00 +29°C° 0 mm 2 m/s 760 mmHg 57%
    16:00 +28°C° 0,2 mm 2 m/s 760 mmHg 64%
    17:00 +28°C° 0,2 mm 2 m/s 759 mmHg 70%
    18:00 +27°C° 0,2 mm 2 m/s 759 mmHg 77%
    19:00 +25°C° 0,2 mm 1 m/s 760 mmHg 83%
    20:00 +23°C° 0,2 mm 1 m/s 760 mmHg 88%
    21:00 +22°C° 0,2 mm 1 m/s 760 mmHg 94%
    22:00 +22°C° 0,2 mm 1 m/s 760 mmHg 95%
    23:00 +21°C° 0,2 mm 1 m/s 760 mmHg 96%

    Demain, 22 Janvier, Lundi

    Heure Température Précipitation Vent Pression Humidité
    00:00 +21°C° 0,2 mm 1 m/s 760 mmHg 97%
    01:00 +21°C° 0,4 mm 1 m/s 760 mmHg 98%
    02:00 +21°C° 0,4 mm 1 m/s 760 mmHg 98%
    03:00 +21°C° 0,4 mm 1 m/s 759 mmHg 98%
    04:00 +21°C° 0,2 mm 1 m/s 759 mmHg 99%
    05:00 +21°C° 0,2 mm 1 m/s 759 mmHg 99%
    06:00 +21°C° 0,2 mm 1 m/s 759 mmHg 99%
    07:00 +22°C° 0,1 mm 1 m/s 759 mmHg 97%
    08:00 +22°C° 0,1 mm 1 m/s 759 mmHg 96%
    09:00 +23°C° 0,1 mm 2 m/s 760 mmHg 95%
    10:00 +23°C° 0,3 mm 2 m/s 759 mmHg 92%
    11:00 +24°C° 0,3 mm 2 m/s 759 mmHg 90%
    12:00 +25°C° 0,3 mm 2 m/s 759 mmHg 87%
    13:00 +25°C° 0,2 mm 2 m/s 759 mmHg 83%
    14:00 +26°C° 0,2 mm 2 m/s 758 mmHg 79%
    15:00 +26°C° 0,2 mm 2 m/s 758 mmHg 75%
    16:00 +26°C° 0,2 mm 2 m/s 758 mmHg 76%
    17:00 +26°C° 0,2 mm 2 m/s 758 mmHg 77%
    18:00 +26°C° 0,2 mm 2 m/s 758 mmHg 77%
    19:00 +24°C° 0,2 mm 1 m/s 758 mmHg 82%
    20:00 +23°C° 0,2 mm 1 m/s 758 mmHg 87%
    21:00 +22°C° 0,2 mm 1 m/s 758 mmHg 92%
    22:00 +21°C° 0,7 mm 1 m/s 758 mmHg 94%
    23:00 +21°C° 0,7 mm 1 m/s 759 mmHg 96%

    Après-demain, 23 Janvier, Mardi

    Heure Température Précipitation Vent Pression Humidité
    00:00 +20°C° 0,7 mm 1 m/s 759 mmHg 97%
    01:00 +20°C° 1,5 mm 1 m/s 758 mmHg 97%
    02:00 +20°C° 1,5 mm 1 m/s 758 mmHg 98%
    03:00 +20°C° 1,5 mm 1 m/s 758 mmHg 98%
    04:00 +20°C° 2,1 mm 1 m/s 758 mmHg 98%
    05:00 +20°C° 2,1 mm 1 m/s 758 mmHg 98%
    06:00 +20°C° 2,1 mm 1 m/s 758 mmHg 99%
    07:00 +20°C° 1,9 mm 1 m/s 758 mmHg 98%
    08:00 +20°C° 1,9 mm 2 m/s 758 mmHg 98%
    09:00 +20°C° 1,9 mm 2 m/s 758 mmHg 98%
    10:00 +22°C° 1 mm 1 m/s 758 mmHg 96%
    11:00 +23°C° 1 mm 1 m/s 758 mmHg 94%
    12:00 +24°C° 1 mm 1 m/s 758 mmHg 91%
    13:00 +25°C° 1,2 mm 2 m/s 758 mmHg 89%
    14:00 +25°C° 1,2 mm 2 m/s 757 mmHg 87%
    15:00 +26°C° 1,2 mm 2 m/s 757 mmHg 85%
    16:00 +26°C° 1,3 mm 1 m/s 757 mmHg 87%
    17:00 +25°C° 1,3 mm 1 m/s 757 mmHg 89%
    18:00 +25°C° 1,3 mm 1 m/s 757 mmHg 91%
    19:00 +24°C° 0,2 mm 1 m/s 757 mmHg 93%
    20:00 +23°C° 0,2 mm 1 m/s 757 mmHg 96%
    21:00 +19°C° 0,2 mm 0 m/s 758 mmHg 98%
    22:00 +19°C° 0 mm 0 m/s 758 mmHg 98%
    23:00 +19°C° 0 mm 0 m/s 758 mmHg 99%

    24 Janvier, Mercredi

    Heure Température Précipitation Vent Pression Humidité
    00:00 +19°C° 0 mm 0 m/s 758 mmHg 99%
    01:00 +18°C° 0 mm 0 m/s 758 mmHg 99%
    02:00 +18°C° 0 mm 0 m/s 757 mmHg 99%
    03:00 +18°C° 0 mm 0 m/s 757 mmHg 99%
    04:00 +18°C° 0 mm 0 m/s 757 mmHg 99%
    05:00 +18°C° 0 mm 0 m/s 757 mmHg 99%
    06:00 +18°C° 0 mm 0 m/s 757 mmHg 99%
    07:00 +20°C° 0 mm 0 m/s 758 mmHg 95%
    08:00 +23°C° 0 mm 1 m/s 758 mmHg 92%
    09:00 +24°C° 0 mm 1 m/s 758 mmHg 88%
    10:00 +26°C° 0 mm 1 m/s 758 mmHg 79%
    11:00 +27°C° 0 mm 2 m/s 758 mmHg 70%
    12:00 +29°C° 0 mm 2 m/s 758 mmHg 61%
    13:00 +29°C° 0 mm 2 m/s 758 mmHg 60%
    14:00 +29°C° 0 mm 3 m/s 758 mmHg 59%
    15:00 +29°C° 0 mm 3 m/s 757 mmHg 58%
    16:00 +28°C° 0,1 mm 3 m/s 757 mmHg 62%
    17:00 +27°C° 0,1 mm 3 m/s 757 mmHg 65%
    18:00 +26°C° 0,1 mm 3 m/s 757 mmHg 69%
    19:00 +24°C° 0 mm 2 m/s 758 mmHg 77%
    20:00 +21°C° 0 mm 2 m/s 758 mmHg 85%
    21:00 +20°C° 0 mm 1 m/s 759 mmHg 93%
    22:00 +20°C° 0 mm 1 m/s 759 mmHg 95%
    23:00 +19°C° 0 mm 1 m/s 759 mmHg 96%

    25 Janvier, Jeudi

    Heure Température Précipitation Vent Pression Humidité
    00:00 +19°C° 0 mm 1 m/s 759 mmHg 98%
    01:00 +18°C° 0 mm 1 m/s 759 mmHg 98%
    02:00 +18°C° 0 mm 1 m/s 759 mmHg 98%
    03:00 +18°C° 0 mm 1 m/s 759 mmHg 99%
    04:00 +18°C° 0 mm 1 m/s 759 mmHg 98%
    05:00 +19°C° 0 mm 1 m/s 759 mmHg 98%
    06:00 +19°C° 0 mm 1 m/s 759 mmHg 98%
    07:00 +21°C° 0 mm 1 m/s 760 mmHg 92%
    08:00 +22°C° 0 mm 1 m/s 760 mmHg 86%
    09:00 +24°C° 0 mm 1 m/s 760 mmHg 80%
    10:00 +25°C° 0 mm 2 m/s 760 mmHg 76%
    11:00 +26°C° 0 mm 2 m/s 760 mmHg 71%
    12:00 +28°C° 0 mm 2 m/s 759 mmHg 67%
    13:00 +28°C° 0 mm 2 m/s 759 mmHg 64%
    14:00 +29°C° 0 mm 3 m/s 759 mmHg 62%
    15:00 +30°C° 0 mm 3 m/s 758 mmHg 59%
    16:00 +29°C° 0,2 mm 3 m/s 758 mmHg 64%
    17:00 +28°C° 0,2 mm 3 m/s 758 mmHg 69%
    18:00 +27°C° 0,2 mm 3 m/s 758 mmHg 73%
    19:00 +25°C° 0,4 mm 2 m/s 759 mmHg 81%
    20:00 +23°C° 0,4 mm 2 m/s 759 mmHg 89%
    21:00 +21°C° 0,4 mm 1 m/s 760 mmHg 97%
    22:00 +21°C° 0,2 mm 1 m/s 760 mmHg 97%
    23:00 +20°C° 0,2 mm 1 m/s 760 mmHg 98%

    26 Janvier, Vendredi

    Heure Température Précipitation Vent Pression Humidité
    00:00 +20°C° 0,2 mm 1 m/s 760 mmHg 99%
    01:00 +20°C° 0 mm 1 m/s 760 mmHg 98%
    02:00 +20°C° 0 mm 1 m/s 760 mmHg 98%
    03:00 +18°C° 0 mm 0 m/s 759 mmHg 98%
    04:00 +18°C° 0 mm 0 m/s 760 mmHg 98%
    05:00 +18°C° 0 mm 0 m/s 760 mmHg 97%
    06:00 +19°C° 0 mm 0 m/s 760 mmHg 97%
    07:00 +19°C° 0 mm 0 m/s 760 mmHg 94%
    08:00 +20°C° 0 mm 0 m/s 760 mmHg 90%
    09:00 +21°C° 0 mm 0 m/s 761 mmHg 87%
    10:00 +23°C° 0 mm 0 m/s 760 mmHg 78%
    11:00 +27°C° 0 mm 1 m/s 760 mmHg 70%
    12:00 +29°C° 0 mm 1 m/s 760 mmHg 62%
    13:00 +30°C° 0,1 mm 1 m/s 760 mmHg 60%
    14:00 +31°C° 0,1 mm 1 m/s 760 mmHg 58%
    15:00 +31°C° 0,1 mm 2 m/s 759 mmHg 56%
    16:00 +30°C° 0,4 mm 1 m/s 759 mmHg 62%
    17:00 +29°C° 0,4 mm 1 m/s 760 mmHg 69%
    18:00 +28°C° 0,4 mm 1 m/s 760 mmHg 76%
    19:00 +26°C° 0,2 mm 1 m/s 760 mmHg 82%
    20:00 +24°C° 0,2 mm 1 m/s 761 mmHg 88%
    21:00 +22°C° 0,2 mm 1 m/s 761 mmHg 94%
    22:00 +21°C° 0 mm 1 m/s 761 mmHg 96%
    23:00 +21°C° 0 mm 1 m/s 761 mmHg 97%
    Voir plus